Terug naar catalogus

METEOR 2-8 DEB

ActiefPO
NORAD 36328·DEBRIS·🇷🇺 Russia

Gelanceerd Mar 25, 1982 vanaf Plesetsk Cosmodrome

Loading…

Volgende Passages (komende 24 uur)

TLE

VerouderendSource: Space-Track

Epoch: Sep 10, 2026, 01:21 UTC

1 36328U 82025N   26253.05625458  .00002500  00000-0  11715-2 0  9996
2 36328  82.5183 170.1440 0023770  30.7775 329.4793 14.19718322680285

Volg METEOR 2-8 DEB in realtime met AllMySat

Download on the App Store